[[{"header":{"parameterUnit":"m.s-1","parameterCategory":1,"la1":30.2991,"la2":30.254,"lo1":-89.0895,"lo2":-89.0444,"dy":0.0017,"dx":0.0017,"nx":28,"ny":28,"refTime":"2023-04-26T21:00:00:Z","depth":0,"parameterNumber":2,"parameterNumberName":"U-component_of_WINDS"},"data":[0,0,0,0,0,0,0,0,0,0,0,0,0,0,0,0,0,0,0,0,0,0,0,0,0,0,0,0,0,0,0,0,0,0,0,0,0,0,0,0,0,0,0,0,0,0,0,0,0,0,0,0,0,0,0,0,0,0,-4.0832,-4.0833,0,-4.0887,-4.0887,-4.0888,-4.0818,-4.0816,-4.0813,-4.0811,-4.0866,-4.0869,-4.0873,0,0,0,0,0,0,0,0,0,0,0,0,0,-4.0669,-4.0673,-4.0832,-4.0833,-4.0834,-4.0886,-4.0887,-4.0888,-4.0819,-4.0816,-4.0813,-4.081,-4.0864,-4.0869,-4.0873,0,0,0,0,0,0,0,0,0,0,0,0,0,-4.0734,-4.0674,-4.0832,-4.0806,-4.0804,-4.0886,-4.0887,-4.0888,-4.0819,-4.0816,-4.0812,-4.0808,-4.0863,-4.0868,-4.0874,-4.0985,0,0,-4.0892,-4.0894,0,0,0,0,0,0,0,0,-4.073,-4.074,-4.0809,-4.0808,-4.0806,-4.0842,-4.085,-4.0921,-4.082,-4.0813,-4.0811,-4.0806,-4.0861,-4.0866,-4.0885,-4.0988,-4.099,-4.0892,-4.0896,-4.0898,-4.09,0,0,0,0,0,0,0,-4.0726,-4.0737,-4.0854,-4.081,-4.0808,-4.0791,-4.0796,-4.0863,-4.0858,-4.0814,-4.0809,-4.0816,-4.0859,-4.088,-4.0886,-4.0991,-4.0892,-4.0897,-4.0901,-4.0903,-4.1189,-4.1193,0,0,0,0,0,0,-4.0724,-4.0734,-4.0852,-4.0855,-4.0758,-4.0797,-4.0803,-4.0834,-4.0857,-4.0857,-4.0819,-4.0813,-4.0872,-4.0879,-4.0887,-4.1019,-4.0898,-4.0903,-4.0907,-4.1185,-4.119,-4.1194,0,0,0,0,0,0,-4.0721,-4.0736,-4.085,-4.0793,-4.0806,-4.0804,-4.084,-4.0837,-4.0857,-4.0861,-4.086,-4.0841,-4.0869,-4.0879,-4.0962,-4.102,-4.0906,-4.0911,-4.118,-4.1186,-4.1192,-4.1283,0,0,0,0,0,0,-4.0717,-4.0735,-4.0777,-4.0795,-4.081,-4.0923,-4.0843,-4.0841,-4.0867,-4.0859,-4.0881,-4.0881,-4.0867,-4.0954,-4.0967,-4.1025,-4.0916,-4.1174,-4.1183,-4.119,-4.1275,-4.1291,-4.1306,0,0,0,0,0,-4.0711,-4.08,-4.0779,-4.0794,-4.0862,-4.0927,-4.0935,-4.0917,-4.0872,-4.0915,-4.0917,-4.088,-4.1012,-4.0963,-4.0977,-4.1038,-4.1171,-4.118,-4.1189,-4.1267,-4.1288,-4.1305,0,0,0,0,0,0,-4.0788,-4.0801,-4.0779,-4.0876,-4.0901,-4.0915,-4.0967,-4.0939,-4.0977,-4.0968,-4.0944,-4.095,-4.1037,-4.1046,-4.0991,-4.1148,-4.1084,-4.1097,-4.1138,-4.1158,-4.1173,-4.1168,-4.092,0,0,0,0,0,-4.0816,-4.0867,-4.0877,-4.0962,-4.0975,-4.097,-4.0997,-4.0981,-4.1006,-4.1016,-4.1024,-4.105,-4.1097,-4.1128,-4.1171,-4.1277,-4.128,-4.1326,-4.1342,-4.1354,-4.1365,-4.1422,-4.1442,-4.1225,-4.1225,-4.1225,0,0,-4.0874,-4.0889,-4.0922,-4.0977,-4.0995,-4.1048,-4.0979,-4.1038,-4.1078,-4.1025,-4.1103,-4.1111,-4.1137,-4.1232,-4.1274,-4.1242,-4.1426,-4.1366,-4.1376,-4.138,-4.1433,-4.1454,-4.1472,-4.1231,-4.123,-4.1229,0,0,-4.1008,-4.1025,-4.1097,-4.1116,-4.1144,-4.114,-4.1158,-4.1177,-4.118,-4.1259,-4.122,-4.1267,-4.1349,-4.1369,-4.1391,-4.1536,-4.1503,-4.1551,-4.1631,-4.1687,-4.1704,-4.1719,-4.177,-4.1789,-4.1562,-4.1562,-4.1562,0,-4.1077,-4.1157,-4.1138,-4.12,-4.1226,-4.1182,-4.1255,-4.1275,-4.1316,-4.1334,-4.1298,-4.14,-4.1415,-4.1514,-4.155,-4.1569,-4.1588,-4.1547,-4.1703,-4.1718,-4.1732,-4.178,-4.1799,-4.1568,-4.1567,-4.1567,-4.1566,0,-4.124,-4.1296,-4.1351,-4.1392,-4.1424,-4.1492,-4.1484,-4.1519,-4.1501,-4.1501,-4.1582,-4.1599,-4.1646,-4.1668,-4.1651,-4.1765,-4.1745,-4.1707,-4.1642,-4.1758,-4.1803,-4.1822,-4.1576,-4.1574,-4.1572,-4.1571,0,0,-4.142,-4.1452,-4.1472,-4.1491,-4.1519,-4.1562,-4.1629,-4.1675,-4.1705,-4.1736,-4.1791,-4.1862,-4.1828,-4.1852,-4.1837,-4.1886,-4.2,-4.1842,-4.1843,-4.187,-4.2126,-4.2153,-4.2175,-4.198,-4.1983,-4.1986,-4.2124,0,-4.1553,-4.1668,-4.1654,-4.1764,-4.1816,-4.1776,-4.1834,-4.1859,-4.1861,-4.1906,-4.1909,-4.1959,-4.191,-4.1925,-4.1972,-4.1976,-4.2051,-4.1966,-4.203,-4.2032,-4.2022,-4.2199,-4.2227,-4.2356,-4.2141,-4.2144,-4.2146,0,-4.1723,-4.1761,-4.1876,-4.1898,-4.1919,-4.1971,-4.2013,-4.2056,-4.2084,-4.2082,-4.2111,-4.2088,-4.2156,-4.2092,-4.2184,-4.2127,-4.2153,-4.2159,-4.2164,-4.2167,-4.2095,-4.2206,-4.2397,-4.2416,-4.2174,-4.2172,-4.217,0,-4.1842,-4.1921,-4.2001,-4.2018,-4.2046,-4.2084,-4.2097,-4.2121,-4.215,-4.2187,-4.2205,-4.225,-4.2274,-4.2309,-4.2299,-4.2254,-4.2394,-4.2329,-4.2394,-4.2394,-4.2423,-4.2421,-4.262,-4.2443,-4.2443,-4.2443,-4.2442,0,-4.1991,-4.2063,-4.2055,-4.2103,-4.2183,-4.2167,-4.2247,-4.2255,-4.2277,-4.2327,-4.2296,-4.2344,-4.2329,-4.2376,-4.2369,-4.2446,-4.2458,-4.2458,-4.2455,-4.246,-4.246,-4.2475,-4.2465,-4.2448,-4.2447,-4.2446,-4.2445,0,-4.2136,-4.2133,-4.2217,-4.2238,-4.2245,-4.2302,-4.232,-4.2366,-4.2367,-4.2431,-4.2445,-4.2447,-4.2501,-4.2496,-4.2556,-4.2552,-4.2647,-4.2634,-4.2638,-4.2634,-4.27,-4.2693,-4.2913,-4.2941,-4.2748,-4.275,-4.2752,0,-4.223,-4.2284,-4.2311,-4.2343,-4.2359,-4.241,-4.244,-4.2428,-4.246,-4.2497,-4.2538,-4.259,-4.263,-4.2718,-4.2725,-4.2771,-4.2758,-4.2833,-4.2765,-4.2768,-4.2758,-4.2754,-4.276,-4.2845,-4.2847,-4.2849,-4.2851,0,-4.2397,-4.2394,-4.2438,-4.2483,-4.252,-4.2555,-4.2586,-4.2613,-4.2604,-4.2643,-4.2698,-4.2729,-4.2792,-4.2843,-4.2887,-4.2901,-4.2875,-4.2872,-4.289,-4.2894,-4.2893,-4.2894,-4.2673,-4.2867,-4.2865,-4.2864,-4.2863,-4.2862,-4.2519,-4.2565,-4.2592,-4.2643,-4.2666,-4.2696,-4.2741,-4.2749,-4.2795,-4.2844,-4.2835,-4.2897,-4.2924,-4.2981,-4.3,-4.3049,-4.3022,-4.3047,-4.3053,-4.3059,-4.3066,-4.2888,-4.3057,-4.3057,-4.3056,-4.3056,-4.3055,0,-4.2683,-4.2699,-4.2746,-4.2792,-4.2832,-4.2805,-4.2839,-4.2875,-4.293,-4.2958,-4.2999,-4.3063,-4.3113,-4.3125,-4.3174,-4.321,-4.3199,-4.3223,-4.3219,-4.3223,-4.3088,-4.3068,-4.3231,-4.3231,-4.3231,-4.3231,-4.3231,-4.3231,-4.2773,-4.2851,-4.2852,-4.2941,-4.2956,-4.3017,-4.3039,-4.3067,-4.309,-4.3163,-4.3205,-4.3213,-4.3235,-4.3285,-4.333,-4.3332,-4.3351,-4.338,-4.3377,-4.325,-4.3232,-4.3216,-4.3196,-4.3384,-4.3384,-4.3508,-4.3509,-4.351]},{"header":{"parameterUnit":"m.s-1","parameterCategory":1,"la1":30.2991,"la2":30.254,"lo1":-89.0895,"lo2":-89.0444,"dy":0.0017,"dx":0.0017,"nx":28,"ny":28,"refTime":"2023-04-26T21:00:00:Z","depth":0,"parameterNumber":3,"parameterNumberName":"V-component_of_WINDS"},"data":[0,0,0,0,0,0,0,0,0,0,0,0,0,0,0,0,0,0,0,0,0,0,0,0,0,0,0,0,0,0,0,0,0,0,0,0,0,0,0,0,0,0,0,0,0,0,0,0,0,0,0,0,0,0,0,0,0,0,1.7709,1.771,0,1.7764,1.7765,1.7765,1.7781,1.778,1.778,1.778,1.7835,1.7836,1.7838,0,0,0,0,0,0,0,0,0,0,0,0,0,1.7618,1.7619,1.7709,1.771,1.771,1.7764,1.7765,1.7766,1.7781,1.778,1.778,1.778,1.7834,1.7836,1.7838,0,0,0,0,0,0,0,0,0,0,0,0,0,1.7663,1.762,1.7709,1.7725,1.7726,1.7764,1.7765,1.7766,1.7781,1.778,1.778,1.7779,1.7833,1.7836,1.7839,1.7864,0,0,1.7847,1.7848,0,0,0,0,0,0,0,0,1.7661,1.7667,1.7722,1.7724,1.7726,1.7765,1.7753,1.7799,1.7781,1.776,1.778,1.7779,1.7812,1.7816,1.7827,1.7867,1.7869,1.7847,1.7848,1.785,1.785,0,0,0,0,0,0,0,1.7658,1.7664,1.7731,1.7722,1.7725,1.7729,1.7735,1.7762,1.7788,1.7762,1.7763,1.7769,1.7813,1.7825,1.7829,1.787,1.7847,1.7849,1.7851,1.7852,1.7935,1.7936,0,0,0,0,0,0,1.7652,1.7662,1.7729,1.7733,1.7692,1.7731,1.7738,1.7753,1.7788,1.7792,1.777,1.777,1.7821,1.7826,1.7831,1.7865,1.785,1.7852,1.7854,1.7935,1.7935,1.7936,0,0,0,0,0,0,1.765,1.7658,1.7727,1.7698,1.7707,1.7733,1.775,1.7754,1.7766,1.7794,1.7798,1.7777,1.782,1.7827,1.7856,1.7867,1.7853,1.7856,1.7934,1.7935,1.7936,1.7931,0,0,0,0,0,0,1.7647,1.7657,1.7666,1.7698,1.7708,1.7751,1.7751,1.7756,1.7771,1.7772,1.7802,1.7806,1.7821,1.7852,1.7859,1.787,1.7858,1.7933,1.7934,1.7935,1.793,1.7932,1.7933,0,0,0,0,0,1.7644,1.7662,1.7667,1.7675,1.7721,1.7752,1.7758,1.7774,1.7772,1.7782,1.78,1.7805,1.7864,1.7855,1.7863,1.7875,1.7932,1.7934,1.7935,1.793,1.7931,1.7933,0,0,0,0,0,0,1.763,1.7666,1.7672,1.7701,1.7723,1.7754,1.7767,1.7775,1.7798,1.7798,1.7817,1.7823,1.7852,1.7866,1.7855,1.7902,1.7899,1.7902,1.7892,1.7894,1.7895,1.7891,1.786,0,0,0,0,0,1.7631,1.7653,1.7684,1.7706,1.7717,1.7741,1.7755,1.7766,1.7789,1.7798,1.7818,1.7841,1.7865,1.788,1.7903,1.7933,1.794,1.7945,1.7946,1.7947,1.7949,1.7968,1.7971,1.7941,1.7941,1.7941,0,0,1.7632,1.7655,1.7667,1.7704,1.7723,1.7746,1.7748,1.7772,1.7789,1.7802,1.7831,1.7847,1.7873,1.7903,1.7917,1.7916,1.796,1.7949,1.7949,1.7951,1.797,1.7972,1.7975,1.7942,1.7942,1.7941,0,0,1.7646,1.7665,1.7687,1.7706,1.7735,1.7751,1.7756,1.7786,1.7797,1.7827,1.7838,1.7859,1.7899,1.7918,1.7933,1.7957,1.7964,1.7964,1.7971,1.7988,1.7991,1.7993,1.8003,1.8006,1.7967,1.7967,1.7967,0,1.7644,1.7679,1.7697,1.7721,1.7738,1.7752,1.7774,1.7792,1.7826,1.7838,1.7836,1.7888,1.7907,1.7943,1.7949,1.796,1.7967,1.7961,1.7989,1.7991,1.7994,1.8003,1.8007,1.7967,1.7967,1.7967,1.7967,0,1.7675,1.77,1.7714,1.7748,1.7767,1.779,1.7812,1.7828,1.7838,1.7854,1.7886,1.7909,1.7938,1.7948,1.7957,1.7985,1.7984,1.7985,1.7982,1.7996,1.8006,1.8009,1.7966,1.7967,1.7967,1.7967,0,0,1.7681,1.7727,1.7732,1.7749,1.7782,1.7801,1.7826,1.7856,1.787,1.7894,1.7915,1.795,1.7953,1.797,1.7982,1.7997,1.8017,1.7997,1.7998,1.8001,1.8051,1.805,1.8053,1.8021,1.8022,1.8023,1.8049,0,1.77,1.7744,1.7763,1.7799,1.7822,1.7837,1.7859,1.7882,1.7898,1.7921,1.7939,1.7964,1.7965,1.7975,1.7991,1.8011,1.8027,1.8009,1.8042,1.8043,1.8035,1.8058,1.8056,1.808,1.8053,1.8053,1.8054,0,1.7727,1.7753,1.7792,1.7825,1.7835,1.7854,1.7884,1.7905,1.7932,1.7943,1.7964,1.7975,1.8002,1.7998,1.8036,1.8024,1.8038,1.805,1.8052,1.8055,1.8049,1.8063,1.8088,1.8091,1.8059,1.8059,1.8058,0,1.7729,1.7773,1.7802,1.7816,1.7855,1.7868,1.7885,1.7912,1.7929,1.7955,1.7967,1.7995,1.8011,1.8033,1.8052,1.8047,1.8089,1.8086,1.81,1.8099,1.8107,1.8107,1.8135,1.8116,1.8116,1.8116,1.8116,0,1.7748,1.7771,1.7804,1.7822,1.7849,1.787,1.7897,1.7915,1.7939,1.7961,1.7975,1.7996,1.802,1.8044,1.806,1.809,1.8097,1.8107,1.8111,1.8106,1.8104,1.8116,1.8115,1.8117,1.8117,1.8117,1.8117,0,1.7754,1.7776,1.781,1.7844,1.7854,1.7872,1.7902,1.7921,1.7939,1.7967,1.7975,1.8003,1.8032,1.8054,1.8091,1.8102,1.8134,1.8138,1.8125,1.8127,1.814,1.8139,1.8177,1.8184,1.816,1.816,1.816,0,1.7764,1.7783,1.7821,1.7837,1.7854,1.788,1.7898,1.7921,1.7939,1.7973,1.7988,1.8018,1.8044,1.809,1.8114,1.8143,1.8148,1.816,1.8152,1.8148,1.8149,1.8148,1.8151,1.816,1.8161,1.8161,1.8161,0,1.7782,1.7793,1.7818,1.7849,1.7871,1.7896,1.7921,1.7934,1.7961,1.7981,1.8012,1.8032,1.8071,1.8102,1.8134,1.8151,1.8161,1.8163,1.8168,1.8163,1.8155,1.8161,1.8129,1.8162,1.8162,1.8162,1.8162,1.8162,1.7791,1.7809,1.7839,1.7868,1.789,1.7913,1.7933,1.7954,1.798,1.8015,1.8026,1.8059,1.8088,1.8132,1.815,1.8176,1.8176,1.8183,1.8184,1.8186,1.8186,1.8151,1.8182,1.8182,1.8182,1.8182,1.8182,0,1.7809,1.783,1.7857,1.7892,1.7916,1.7924,1.7953,1.7971,1.8,1.8026,1.8052,1.8088,1.8118,1.8145,1.8177,1.8193,1.8198,1.82,1.82,1.8204,1.8184,1.8177,1.8196,1.8196,1.8196,1.8196,1.8196,1.8196,1.7822,1.7853,1.7868,1.7911,1.7932,1.7964,1.798,1.8002,1.8024,1.8064,1.809,1.8107,1.8135,1.8169,1.8197,1.8205,1.8216,1.8217,1.8226,1.8207,1.8205,1.8203,1.8197,1.822,1.822,1.8244,1.8244,1.8244]}]]